Home > Weather > Al Jizah > Past weeks

Flag for Egypt Weather for the Past 2 Weeks in Al Jizah, Egypt

Now
64 °F

Clear.


Feels Like: 64 °F
Forecast: 47 / 74 °F
Wind: 6 mph from Northeast

Location: Cairo Airport

Current Time: Feb 11, 2016 at 7:19:20 PM

Latest Report: Feb 11, 2016 at 7:00 PM


Visibility: 10 mi

Pressure: 30.24 "Hg

Humidity: 52%

Dew point: 46 °F

Location of Al JizahLocation

Historic Weather in Al Jizah — Graph

°F

Al Jizah Temperature Yesterday

Maximum temperature yesterday: 64 °F (at 2:00 PM)
Minimum temperature yesterday: 54 °F (at 6:30 AM)
Average temperature yesterday: 60 °F

High & Low Weather Summary for the Past Weeks

 TemperatureHumidityPressure
High77 °F (Feb 4, 2:00 PM)100% (Jan 28, 6:00 AM)30.45 "Hg (Jan 28, 6:00 AM)
Low41 °F (Jan 28, 5:30 AM)22% (Feb 4, 3:00 PM)29.95 "Hg (Feb 5, 3:00 AM)
Average57 °F62%30.23 "Hg
* Reported Jan 27 6:00 PM — Feb 11 6:00 PM, Al Jizah, Weather by CustomWeather, © 2016

Note: Actual official high and low records may vary slightly from our data, if they occured in-between our weather recording intervals... More about our weather records

Advertising

Al Jizah Weather History for the Previous 24 Hours

 ConditionsComfort  
Time TempWeatherWind HumidityBarometerVisibility
6:00 PM
Thu, Feb 11
66 °FClear.5 mph46%30.21 "Hg10 mi
5:00 PM68 °FSunny.3 mph40%30.21 "Hg10 mi
4:00 PM68 °FSunny.3 mph40%30.21 "Hg10 mi
3:30 PM68 °FSunny.No wind40%30.21 "Hg10 mi
3:00 PM68 °FSunny.6 mph40%30.21 "Hg10 mi
2:30 PM68 °FSunny.5 mph43%30.21 "Hg10 mi
2:00 PM68 °FSunny.5 mph40%30.21 "Hg10 mi
1:30 PM68 °FClear.6 mph40%30.21 "Hg4 mi
1:00 PM66 °FClear.2 mph46%30.24 "Hg4 mi
12:30 PM66 °FClear.6 mph46%30.24 "Hg4 mi
12:00 PM66 °FClear.5 mph46%30.24 "Hg4 mi
11:30 AM64 °FClear.6 mph56%30.27 "Hg4 mi
11:00 AM64 °FClear.6 mph52%30.27 "Hg4 mi
10:30 AM64 °FClear.2 mph52%30.27 "Hg4 mi
10:00 AM63 °FClear.2 mph56%30.27 "Hg4 mi
9:30 AM61 °FHaze.2 mph63%30.27 "Hg2 mi
9:00 AM59 °FHaze.5 mph68%30.27 "Hg2 mi
8:30 AM55 °FFog.No wind72%30.27 "Hg1 mi
8:00 AM55 °FFog.No wind72%30.27 "Hg1 mi
7:30 AM52 °FFog.No wind82%30.24 "Hg1 mi
7:00 AM52 °FFog.No wind82%30.24 "Hg1 mi
6:30 AM52 °FHaze.No wind77%30.24 "Hg1 mi
6:00 AM52 °FHaze.No wind77%30.24 "Hg2 mi
5:30 AM52 °FHaze.No wind77%30.21 "Hg2 mi
4:30 AM52 °FClear.No wind77%30.21 "Hg4 mi
4:00 AM52 °FClear.No wind77%30.21 "Hg4 mi
3:30 AM54 °FClear.No wind72%30.21 "Hg4 mi
3:00 AM54 °FClear.2 mph77%30.21 "Hg4 mi
2:00 AM54 °FClear.3 mph77%30.21 "Hg4 mi
1:30 AM54 °FClear.3 mph77%30.21 "Hg4 mi
1:00 AM55 °FClear.No wind72%30.21 "Hg4 mi
12:00 AM57 °FClear.No wind72%30.21 "Hg4 mi
11:00 PM
Wed, Feb 10
59 °FClear.5 mph68%30.24 "Hg4 mi
10:30 PM57 °FClear.7 mph67%30.24 "Hg4 mi
10:00 PM57 °FClear.3 mph67%30.21 "Hg4 mi
9:30 PM59 °FClear.3 mph63%30.21 "Hg4 mi
9:00 PM59 °FClear.3 mph63%30.21 "Hg4 mi
8:30 PM61 °FPassing clouds.5 mph59%30.21 "HgN/A
8:00 PM61 °FPassing clouds.5 mph55%30.21 "HgN/A
7:30 PM63 °FPassing clouds.3 mph52%30.18 "HgN/A
7:00 PM63 °FPassing clouds.3 mph52%30.18 "HgN/A
Weather by CustomWeather, © 2016

See weather overviewHow to use our weather pages